W7KKE-3 Weather Reports


time (UTC)temp
F
wind
direction
speed
knots
gust
knots
rain 1hr
in
rain 24hr
in
rain mn
in
humidity
%
barometer
mb
20260902044326 61 172 5.2 12.2 0.00 0.04 0.04 87 1007.8
20260902043826 61 207 4.3 12.2 0.00 0.04 0.04 87 1007.7
20260902043325 61 179 3.5 12.2 0.00 0.04 0.04 87 1007.7
20260902042826 61 205 3.5 11.3 0.00 0.04 0.04 87 1007.7
20260902042325 61 162 4.3 11.3 0.00 0.04 0.04 87 1007.8
20260902041825 61 165 6.1 11.3 0.00 0.04 0.04 87 1007.9
20260902041326 61 175 7.0 13.9 0.00 0.04 0.04 87 1007.9
20260902040825 61 163 6.1 13.9 0.00 0.04 0.04 87 1007.9
20260902040325 61 156 3.5 13.9 0.00 0.04 0.04 87 1007.8
20260902035826 61 208 8.7 13.9 0.00 0.04 0.04 87 1007.8
20260902034825 61 163 3.5 13.9 0.00 0.04 0.04 87 1007.8
20260902034326 61 194 6.1 16.5 0.00 0.04 0.04 87 1007.8
20260902033825 61 194 6.1 16.5 0.00 0.04 0.04 87 1007.9
20260902033325 61 176 7.8 16.5 0.00 0.04 0.04 87 1007.9
20260902032826 61 180 4.3 13.9 0.00 0.04 0.04 87 1007.9
20260902031825 61 203 5.2 9.6 0.00 0.04 0.04 87 1008.0
20260902031326 61 196 3.5 7.8 0.00 0.04 0.04 87 1007.9
20260902030825 61 193 2.6 7.8 0.00 0.04 0.04 87 1007.9
20260902030325 61 190 3.5 7.8 0.00 0.04 0.04 87 1007.8
20260902025826 61 187 2.6 7.0 0.00 0.04 0.04 87 1007.8
20260902025325 61 165 4.3 4.3 0.00 0.04 0.04 87 1007.7
20260902024825 61 210 0.0 8.7 0.00 0.04 0.04 87 1007.8
20260902024326 61 198 3.5 8.7 0.00 0.04 0.04 87 1007.8
20260902023825 61 183 4.3 8.7 0.00 0.04 0.04 87 1007.8
20260902023325 61 214 6.1 7.0 0.00 0.04 0.04 86 1007.8
20260902022825 61 205 1.7 5.2 0.00 0.04 0.04 87 1007.8
20260902022325 61 186 3.5 10.4 0.00 0.04 0.04 86 1007.8
20260902021825 61 228 4.3 10.4 0.00 0.04 0.04 86 1007.8
20260902021326 61 177 4.3 10.4 0.00 0.04 0.04 86 1007.8
20260902020825 61 186 6.1 12.2 0.00 0.04 0.04 86 1007.9
20260902020325 61 184 6.1 12.2 0.00 0.04 0.04 86 1008.0
20260902015826 62 173 6.1 12.2 0.00 0.04 0.04 86 1007.9
20260902015325 62 200 6.1 10.4 0.00 0.04 0.04 86 1007.8
20260902014825 62 162 6.1 10.4 0.00 0.04 0.04 86 1007.7
20260902014326 62 156 7.0 11.3 0.00 0.04 0.04 86 1007.7
20260902013825 62 204 5.2 11.3 0.00 0.04 0.04 87 1007.7
20260902013325 62 190 3.5 11.3 0.00 0.04 0.04 86 1007.8
20260902012825 62 154 7.0 9.6 0.00 0.04 0.04 87 1007.8
20260902012325 62 193 5.2 8.7 0.00 0.04 0.04 87 1007.7
20260902011825 62 246 5.2 13.9 0.00 0.04 0.04 87 1007.7
20260902011326 61 201 3.5 13.9 0.00 0.04 0.04 87 1007.7
20260902010825 61 196 7.0 13.9 0.00 0.04 0.04 86 1007.8
20260902010325 62 196 8.7 13.0 0.00 0.04 0.04 86 1007.8
20260902005825 62 201 5.2 13.0 0.00 0.04 0.04 86 1007.8
20260902005325 62 205 3.5 13.0 0.00 0.04 0.04 86 1007.8
20260902004825 62 184 7.8 12.2 0.00 0.04 0.04 86 1007.8
20260902004326 62 187 7.0 13.9 0.00 0.04 0.04 86 1007.9
20260902003825 62 187 6.1 13.9 0.00 0.04 0.04 86 1007.9
20260902003325 62 184 7.8 13.9 0.00 0.04 0.04 86 1008.0
20260902002825 62 194 7.0 13.0 0.00 0.04 0.04 85 1008.1
20260902002325 62 200 7.0 13.0 0.00 0.04 0.04 86 1008.1
20260902001825 62 184 5.2 15.6 0.00 0.04 0.04 86 1008.2
20260902001328 62 211 5.2 15.6 0.00 0.04 0.04 86 1008.1
20260902000825 62 182 4.3 15.6 0.00 0.04 0.04 85 1008.1
20260902000325 62 210 5.2 12.2 0.00 0.04 0.04 85 1008.2
20260901235826 62 177 8.7 16.5 0.00 0.04 0.04 85 1008.1
20260901235325 62 191 6.1 16.5 0.00 0.04 0.04 85 1008.2
20260901234825 62 186 10.4 16.5 0.00 0.04 0.04 85 1008.3
20260901234326 63 189 8.7 15.6 0.00 0.04 0.04 85 1008.2
20260901233825 63 196 7.0 13.0 0.00 0.04 0.04 85 1008.2
20260901233325 63 207 7.0 18.2 0.00 0.04 0.04 85 1008.2
20260901232825 62 193 7.8 18.2 0.00 0.04 0.04 85 1008.2
20260901232325 62 182 10.4 18.2 0.00 0.04 0.04 85 1008.2
20260901231825 63 198 9.6 17.4 0.00 0.04 0.04 85 1008.3
20260901231326 62 175 7.0 17.4 0.00 0.04 0.04 85 1008.2
20260901225825 63 172 7.0 13.9 0.00 0.04 0.04 83 1008.3
20260901225325 64 190 5.2 13.9 0.00 0.04 0.04 83 1008.3
20260901224825 64 158 6.1 13.9 0.00 0.04 0.04 84 1008.2
20260901224326 64 252 6.1 13.0 0.00 0.04 0.04 84 1008.2
20260901223825 64 201 6.1 12.2 0.00 0.04 0.04 84 1008.3
20260901223325 63 180 7.0 11.3 0.00 0.04 0.04 84 1008.2
20260901222825 63 190 7.0 9.6 0.00 0.04 0.04 84 1008.3
20260901222325 64 226 4.3 9.6 0.00 0.04 0.04 84 1008.4
20260901221825 64 221 4.3 8.7 0.00 0.04 0.04 84 1008.4
20260901221326 64 246 3.5 8.7 0.00 0.04 0.04 84 1008.4
20260901220826 64 229 4.3 7.0 0.00 0.04 0.04 84 1008.4
20260901220325 65 257 3.5 7.0 0.00 0.04 0.04 84 1008.4
20260901215325 64 190 4.3 10.4 0.00 0.04 0.04 85 1008.4
20260901214825 63 200 5.2 10.4 0.00 0.04 0.04 85 1008.3
20260901214326 63 154 7.0 10.4 0.00 0.04 0.04 85 1008.3
20260901213825 63 180 3.5 13.0 0.00 0.04 0.04 85 1008.3
20260901213325 63 189 6.1 13.0 0.00 0.04 0.04 84 1008.2
20260901212825 63 247 7.0 13.0 0.00 0.04 0.04 84 1008.2
20260901212325 63 232 7.8 13.0 0.00 0.04 0.04 84 1008.2
20260901211825 63 239 6.1 13.9 0.00 0.04 0.04 85 1008.2
20260901211326 63 190 4.3 13.9 0.00 0.04 0.04 85 1008.2
20260901210825 63 193 4.3 13.9 0.00 0.04 0.04 85 1008.2
20260901210325 63 207 7.8 10.4 0.00 0.04 0.04 85 1008.2
20260901205825 63 168 7.0 11.3 0.00 0.04 0.04 85 1008.2
20260901205325 62 225 6.1 11.3 0.00 0.04 0.04 86 1008.2
20260901204825 62 184 2.6 11.3 0.00 0.04 0.04 86 1008.1
20260901204326 62 239 5.2 11.3 0.00 0.04 0.04 85 1008.1
20260901203826 62 247 6.1 11.3 0.00 0.04 0.04 86 1008.2
20260901203326 62 187 6.1 10.4 0.00 0.04 0.04 85 1008.1
20260901202825 62 214 2.6 10.4 0.00 0.04 0.04 86 1008.2
20260901202325 62 170 5.2 10.4 0.00 0.04 0.04 86 1008.3
20260901201825 62 187 3.5 9.6 0.00 0.04 0.04 86 1008.3
20260901201326 62 197 4.3 9.6 0.00 0.04 0.04 85 1008.4
20260901200825 62 274 3.5 7.8 0.00 0.04 0.04 86 1008.4
20260901200325 62 211 3.5 7.8 0.00 0.04 0.04 86 1008.3
20260901195825 62 194 2.6 11.3 0.00 0.04 0.04 85 1008.3
20260901195325 63 211 4.3 11.3 0.00 0.04 0.04 85 1008.3
20260901194826 63 196 3.5 11.3 0.00 0.04 0.04 85 1008.3
20260901194326 63 183 3.5 8.7 0.00 0.04 0.04 85 1008.3
20260901193825 63 203 3.5 10.4 0.00 0.04 0.04 86 1008.4
20260901193325 63 232 1.7 10.4 0.00 0.04 0.04 86 1008.3
20260901192825 63 163 2.6 10.4 0.00 0.04 0.04 86 1008.3
20260901192325 63 158 5.2 9.6 0.00 0.04 0.04 86 1008.3
20260901191825 62 208 3.5 9.6 0.00 0.04 0.04 87 1008.3
20260901191326 62 239 5.2 9.6 0.00 0.04 0.04 86 1008.3
20260901190827 62 204 2.6 14.8 0.00 0.04 0.04 87 1008.4
20260901190325 62 193 6.1 14.8 0.00 0.04 0.04 87 1008.3
20260901185825 62 204 6.1 14.8 0.00 0.04 0.04 86 1008.3
20260901185325 62 212 7.0 13.9 0.00 0.04 0.04 86 1008.4
20260901184825 62 205 7.0 12.2 0.00 0.04 0.04 87 1008.3
20260901184326 62 144 6.1 12.2 0.00 0.04 0.04 87 1008.3
20260901183825 62 180 4.3 12.2 0.00 0.04 0.04 87 1008.4
20260901183325 61 194 4.3 11.3 0.00 0.04 0.04 88 1008.3
20260901182825 61 169 5.2 11.3 0.00 0.04 0.04 87 1008.3
20260901182325 61 203 5.2 11.3 0.00 0.04 0.04 88 1008.2
20260901181825 61 194 7.0 9.6 0.00 0.04 0.04 88 1008.2
20260901181328 62 138 4.3 9.6 0.00 0.04 0.04 88 1008.2
20260901180825 62 180 4.3 9.6 0.00 0.04 0.04 88 1008.2
20260901180325 62 257 3.5 9.6 0.00 0.04 0.04 88 1008.2
20260901175826 62 190 4.3 9.6 0.00 0.04 0.04 88 1008.2
20260901175325 62 225 3.5 9.6 0.00 0.04 0.04 88 1008.3
20260901174825 62 253 2.6 8.7 0.00 0.04 0.04 88 1008.2
20260901174326 62 236 4.3 6.1 0.00 0.04 0.04 88 1008.2
20260901173825 63 249 2.6 7.8 0.00 0.04 0.04 88 1008.1
20260901173418 63 235 1.7 7.8 0.00 0.04 0.04 88 1008.0
20260901173325 63 235 1.7 7.8 0.00 0.04 0.04 88 1008.0
20260901172826 64 246 1.7 7.8 0.00 0.04 0.04 88 1008.0
20260901172325 64 190 1.7 8.7 0.00 0.04 0.04 89 1007.9
20260901171825 64 207 2.6 8.7 0.00 0.04 0.04 90 1007.8
20260901171326 63 203 1.7 8.7 0.00 0.04 0.04 90 1007.8
20260901170825 63 214 5.2 6.1 0.00 0.04 0.04 90 1007.8
20260901170325 63 191 3.5 5.2 0.00 0.04 0.04 90 1007.8
20260901165826 62 196 0.9 4.3 0.00 0.04 0.04 90 1007.8
20260901165325 62 201 0.9 4.3 0.00 0.04 0.04 90 1007.8
20260901164825 62 222 2.6 4.3 0.00 0.04 0.04 90 1007.8
20260901164326 61 194 0.0 3.5 0.00 0.04 0.04 90 1007.9
20260901163825 61 204 0.9 3.5 0.00 0.04 0.04 89 1007.9
20260901163325 61 162 0.9 2.6 0.00 0.04 0.04 90 1008.0
20260901162826 61 0 0.9 1.7 0.01 0.04 0.04 90 1007.9
20260901162325 61 156 0.0 1.7 0.01 0.04 0.04 90 1008.0
20260901161825 61 187 0.0 0.9 0.01 0.04 0.04 90 1008.0
20260901161326 61 196 0.0 0.0 0.01 0.04 0.04 90 1008.0
20260901160825 61 211 0.0 7.0 0.02 0.04 0.04 90 1008.0
20260901160325 61 196 0.0 7.0 0.02 0.04 0.04 90 1008.0
20260901155826 61 201 3.5 7.0 0.03 0.04 0.04 89 1007.9
20260901155325 61 194 2.6 2.6 0.03 0.04 0.04 89 1007.9
20260901154825 61 0 0.0 0.0 0.03 0.04 0.04 89 1008.0
20260901154326 60 0 0.0 0.0 0.03 0.04 0.04 89 1008.0
20260901153825 60 210 0.0 5.2 0.03 0.04 0.04 89 1008.0
20260901153325 60 246 0.0 5.2 0.03 0.04 0.04 89 1008.0
20260901152827 60 193 0.9 5.2 0.02 0.04 0.04 89 1007.9
20260901152325 60 229 3.5 4.3 0.02 0.03 0.03 89 1008.0
20260901151825 60 217 0.9 4.3 0.02 0.03 0.03 89 1008.0
20260901151326 60 222 1.7 4.3 0.02 0.03 0.03 89 1008.0
20260901150825 60 233 0.9 3.5 0.01 0.03 0.03 89 1008.0
20260901150325 60 249 1.7 1.7 0.01 0.02 0.02 89 1007.9
20260901145825 60 218 0.0 2.6 0.00 0.02 0.02 89 1007.9
20260901144825 60 81 0.0 2.6 0.00 0.01 0.01 89 1007.9
20260901144326 60 92 1.7 2.6 0.00 0.01 0.01 89 1007.8
20260901143825 60 93 0.0 2.6 0.00 0.01 0.01 89 1007.8
20260901143325 60 79 0.9 3.5 0.00 0.01 0.01 89 1007.8
20260901142826 60 89 0.9 3.5 0.00 0.01 0.01 89 1007.8
20260901142325 60 93 0.0 3.5 0.00 0.01 0.01 89 1007.7
20260901141825 60 92 2.6 2.6 0.01 0.01 0.01 89 1007.6
20260901141326 60 82 0.0 2.6 0.01 0.01 0.01 89 1007.6
20260901140325 60 85 0.9 2.6 0.01 0.01 0.01 89 1007.5
20260901135826 60 98 0.0 2.6 0.01 0.01 0.01 89 1007.5
20260901135325 60 131 0.0 2.6 0.01 0.01 0.01 89 1007.4
20260901134825 60 127 0.0 0.9 0.01 0.01 0.01 89 1007.4
20260901134326 60 106 0.9 0.9 0.01 0.01 0.01 89 1007.4
20260901133825 60 341 0.0 4.3 0.01 0.01 0.01 89 1007.4
20260901133325 60 57 0.0 4.3 0.01 0.01 0.01 89 1007.4
20260901132826 60 131 0.0 4.3 0.01 0.01 0.01 89 1007.3
20260901132325 60 100 1.7 3.5 0.01 0.01 0.01 88 1007.3
20260901131825 60 169 0.9 2.6 0.00 0.01 0.01 88 1007.3
20260901131326 60 208 0.9 3.5 0.00 0.01 0.01 88 1007.2
20260901130825 60 187 0.0 3.5 0.00 0.00 0.00 88 1007.2
20260901130325 60 200 0.0 3.5 0.00 0.00 0.00 88 1007.3
20260901125825 60 135 0.9 2.6 0.00 0.00 0.00 88 1007.4
20260901125325 60 163 0.0 1.7 0.00 0.00 0.00 88 1007.4
20260901124825 60 194 0.9 0.9 0.00 0.00 0.00 88 1007.3
20260901124326 60 109 0.0 0.9 0.00 0.00 0.00 88 1007.3
20260901123825 60 0 0.0 3.5 0.00 0.00 0.00 88 1007.3
20260901123325 60 257 0.0 3.5 0.00 0.00 0.00 88 1007.3
20260901122825 60 232 0.9 3.5 0.00 0.00 0.00 88 1007.2
20260901122325 60 78 0.0 0.9 0.00 0.00 0.00 88 1007.2
20260901121825 60 57 0.0 3.5 0.00 0.00 0.00 88 1007.2
20260901121326 60 155 0.0 3.5 0.00 0.00 0.00 88 1007.4
20260901120825 60 156 0.9 3.5 0.00 0.00 0.00 88 1007.4
20260901120325 60 196 0.9 7.0 0.00 0.00 0.00 88 1007.3
20260901115826 60 177 3.5 7.0 0.00 0.00 0.00 88 1007.4
20260901115325 60 222 0.0 7.0 0.00 0.00 0.00 88 1007.4
20260901114825 60 207 2.6 7.0 0.00 0.00 0.00 88 1007.4
20260901114326 60 201 1.7 8.7 0.00 0.00 0.00 88 1007.4
20260901113825 60 194 1.7 8.7 0.00 0.00 0.00 88 1007.4
20260901113326 60 194 2.6 8.7 0.00 0.00 0.00 88 1007.5
20260901112826 60 175 5.2 6.1 0.00 0.00 0.00 87 1007.5
20260901111825 60 211 4.3 4.3 0.00 0.00 0.00 88 1007.5
20260901111326 60 197 0.0 3.5 0.00 0.00 0.00 87 1007.5
20260901110825 60 247 0.0 0.9 0.00 0.00 0.00 87 1007.5
20260901110325 60 0 0.0 0.0 0.00 0.00 0.00 87 1007.5
20260901105825 60 0 0.0 0.0 0.00 0.00 0.00 87 1007.5
20260901105325 60 0 0.0 0.0 0.00 0.00 0.00 87 1007.5
20260901104826 60 0 0.0 0.0 0.00 0.00 0.00 87 1007.5
20260901104326 60 0 0.0 0.0 0.00 0.00 0.00 87 1007.5
20260901103825 60 0 0.0 0.0 0.00 0.00 0.00 87 1007.5
20260901103325 60 0 0.0 1.7 0.00 0.00 0.00 87 1007.5
20260901102826 60 0 0.0 1.7 0.00 0.00 0.00 87 1007.4
20260901102325 60 210 0.0 1.7 0.00 0.00 0.00 87 1007.4
20260901101326 60 0 0.0 0.0 0.00 0.00 0.00 87 1007.4
20260901100825 60 0 0.0 2.6 0.00 0.00 0.00 87 1007.4
20260901100325 60 197 0.0 2.6 0.00 0.00 0.00 87 1007.4
20260901095826 60 201 0.0 2.6 0.00 0.00 0.00 87 1007.4
20260901095325 60 126 0.0 2.6 0.00 0.00 0.00 87 1007.4
20260901094825 60 201 0.0 6.1 0.00 0.00 0.00 87 1007.5
20260901094326 60 200 0.0 6.1 0.00 0.00 0.00 87 1007.4
20260901093825 60 179 2.6 6.1 0.00 0.00 0.00 87 1007.5
20260901093325 60 210 0.0 7.0 0.00 0.00 0.00 87 1007.4
20260901092826 60 210 1.7 7.0 0.00 0.00 0.00 87 1007.4
20260901092325 60 210 0.9 7.0 0.00 0.00 0.00 87 1007.4
20260901091825 60 217 1.7 7.8 0.00 0.00 0.00 87 1007.5
20260901091326 60 205 3.5 7.8 0.00 0.00 0.00 87 1007.5
20260901090825 60 198 3.5 7.8 0.00 0.00 0.00 87 1007.5
20260901090325 60 201 5.2 5.2 0.00 0.00 0.00 87 1007.6
20260901085826 60 218 0.9 5.2 0.00 0.00 0.00 87 1007.6
20260901085325 60 208 3.5 3.5 0.00 0.00 0.00 87 1007.5
20260901084825 60 191 0.9 3.5 0.00 0.00 0.00 87 1007.5
20260901084326 60 201 0.9 3.5 0.00 0.00 0.00 87 1007.5
20260901083825 60 210 1.7 3.5 0.00 0.00 0.00 87 1007.5
20260901083325 60 175 0.9 6.1 0.00 0.00 0.00 87 1007.6
20260901082826 60 161 0.9 6.1 0.00 0.00 0.00 87 1007.6
20260901082325 60 201 0.9 6.1 0.00 0.00 0.00 86 1007.6
20260901081825 60 187 4.3 5.2 0.00 0.00 0.00 86 1007.7
20260901081326 60 196 1.7 7.8 0.00 0.00 0.00 86 1007.6
20260901080825 60 187 1.7 7.8 0.00 0.00 0.00 86 1007.6
20260901080325 60 187 3.5 7.8 0.00 0.00 0.00 86 1007.6
20260901075826 60 215 4.3 7.0 0.00 0.00 0.00 86 1007.6
20260901075325 60 189 1.7 7.0 0.00 0.00 0.00 86 1007.6
20260901074825 60 194 2.6 7.0 0.00 0.00 0.00 86 1007.7
20260901074326 60 189 3.5 8.7 0.00 0.00 0.00 86 1007.6
20260901073825 61 211 2.6 8.7 0.00 0.00 0.00 86 1007.5
20260901073325 61 196 2.6 8.7 0.00 0.00 0.00 86 1007.5
20260901072826 61 196 3.5 7.0 0.00 0.00 0.00 86 1007.5
20260901072325 61 205 5.2 9.6 0.00 0.00 0.00 86 1007.5
20260901071825 61 211 4.3 9.6 0.00 0.00 0.00 86 1007.5
20260901071326 60 189 4.3 9.6 0.00 0.00 0.00 86 1007.5
20260901070825 60 200 5.2 9.6 0.00 0.00 0.00 86 1007.5
20260901070325 60 187 3.5 9.6 0.00 0.00 0.00 86 1007.5
20260901065826 60 163 5.2 9.6 0.00 0.00 0.00 86 1007.5
20260901065325 60 180 3.5 8.7 0.00 0.00 0.00 86 1007.4
20260901064825 60 193 2.6 8.7 0.00 0.00 0.00 86 1007.4
20260901064326 60 186 4.3 8.7 0.00 0.00 0.00 86 1007.4
20260901063825 60 212 6.1 8.7 0.00 0.00 0.00 86 1007.4
20260901063325 61 201 3.5 7.0 0.00 0.00 0.00 86 1007.4
20260901062825 61 193 3.5 7.0 0.00 0.00 0.00 86 1007.4
20260901062325 61 177 3.5 7.0 0.00 0.00 0.00 85 1007.5
20260901061825 61 204 3.5 7.8 0.00 0.00 0.00 85 1007.5
20260901061326 60 204 1.7 7.8 0.00 0.00 0.00 85 1007.5
20260901060825 61 201 1.7 7.8 0.00 0.00 0.00 85 1007.6
20260901060325 61 205 1.7 7.8 0.00 0.00 0.00 85 1007.5
20260901055325 61 201 3.5 7.8 0.00 0.00 0.00 85 1007.5
20260901054825 61 189 4.3 7.0 0.00 0.00 0.00 85 1007.4
20260901054326 61 225 2.6 7.0 0.00 0.00 0.00 85 1007.4
20260901053826 61 221 2.6 6.1 0.00 0.00 0.00 84 1007.4
20260901053325 61 198 0.0 3.5 0.00 0.00 0.00 84 1007.5
20260901052826 61 225 0.0 3.5 0.00 0.00 0.00 84 1007.4
20260901052325 61 242 0.0 1.7 0.00 0.00 0.00 84 1007.5
20260901051825 61 295 0.0 1.7 0.00 0.00 0.00 84 1007.4
20260901051326 62 0 0.0 0.0 0.00 0.00 0.00 84 1007.4
20260901050825 62 0 0.0 0.0 0.00 0.00 0.00 84 1007.4
20260901050325 62 0 0.0 0.0 0.00 0.00 0.00 84 1007.4
20260901045826 62 0 0.0 0.0 0.00 0.00 0.00 84 1007.3
20260901045325 62 0 0.0 0.0 0.00 0.00 0.00 84 1007.3
20260901044825 62 0 0.0 0.0 0.00 0.00 0.00 84 1007.3